Location: Glendale
(37.4556°N, 88.6714°W)
Time: 18:19:35
(UTC+00:00)

OAO 3 Rocket - Pass Details

Date: 08 December 2019
Orbit: 630 x 682 km, 35.0° (Epoch: 26 January)

Event Time Altitude Azimuth Distance (km) Brightness Sun altitude
Rises 00:13:57 0° 253° (WSW) 2,927 8.2 -18.8°
Reaches altitude 10° 00:16:19 10° 249° (WSW) 2,027 6.9 -19.3°
Maximum altitude 00:20:57 58° 171° (S) 752 3.4 -20.2°
Enters shadow 00:22:18 42° 115° (ESE) 932 3.6 -20.4°
